Tracking 17780 objects as of 27-July-2016
HD Live streaming from Space Station
objects crossing your sky now

NAVSTAR 36 (USA 100)

Track NAVSTAR 36 (USA 100) now!
NAVSTAR 36 (USA 100) is classified as:


NORAD ID: 23027
Int'l Code: 1994-016A
Perigee: 19,943.8 km
Apogee: 20,534.7 km
Inclination: 54.6 °
Period: 720.0 minutes
Semi major axis: 26610 km
RCS: 2.0263 m2 (large)
Launch date: March 10, 1994
Source: United States (US)
Launch site: AIR FORCE EASTERN TEST RANGE (AFETR)
PRN:
Your satellite tracking list
Your tracking list is empty





NASA's NSSDC Master Catalog

Two Line Element Set (TLE):
1 23027U 94016A   16208.82930345 -.00000049  00000-0  00000+0 0  9998
2 23027  54.6337  48.4594 0111028  14.9459 253.9122  2.00565537163998
Source of the keplerian elements: AFSPC

N2YO: 1381